Overview Statistics Trail Chart Weather Telemetry Raw packets
 

This is the latest recevied weather packets stored in our database for station/object YD8XVB-13. If no packets are shown the sender has not sent any weather packets the latest 10 day(s).

<< 43 44 45 46 47 48 49 >>
Time Temp. Humidity Pressure Rain* Wind** Luminosity Snow
1777179535 38.33° C 12% 0 hPa - - 0 W/m² -
1777179235 37.78° C 95% 0 hPa - - 0 W/m² -
1777178935 38.89° C 12% 0 hPa - - 0 W/m² -
1777178635 38.89° C 13% 0 hPa - - 0 W/m² -
1777178335 37.22° C 46% 0 hPa - - 0 W/m² -
1777178035 38.33° C 12% 0 hPa - - 0 W/m² -
1777177735 37.78° C 13% 0 hPa - - 0 W/m² -
1777177435 37.78° C 21% 0 hPa - - 0 W/m² -
1777177135 37.78° C 12% 0 hPa - - 0 W/m² -
1777176835 37.78° C 12% 0 hPa - - 0 W/m² -
1777176535 37.78° C 95% 0 hPa - - 0 W/m² -
1777176234 37.22° C 95% 0 hPa - - 0 W/m² -
1777175934 35.56° C 95% 0 hPa - - 0 W/m² -
1777175634 35° C 95% 0 hPa - - 0 W/m² -
1777175334 36.11° C 95% 0 hPa - - 0 W/m² -
1777175034 35.56° C 95% 0 hPa - - 0 W/m² -
1777174734 36.11° C 95% 0 hPa - - 0 W/m² -
1777174434 36.67° C 95% 0 hPa - - 0 W/m² -
1777174134 35.56° C 95% 0 hPa - - 0 W/m² -
1777173834 34.44° C 95% 0 hPa - - 0 W/m² -
1777173534 32.78° C 95% 0 hPa - - 0 W/m² -
1777173234 31.67° C 95% 0 hPa - - 0 W/m² -
1777172934 31.67° C 95% 0 hPa - - 0 W/m² -
1777172634 32.22° C 95% 0 hPa - - 0 W/m² -
1777172334 32.78° C 95% 0 hPa - - 0 W/m² -

* Rain since midnight (hover to see other rain measurements)
** Current wind speed in m/s (hover to see current wind gust speed)